TimeEDT,TemperatureF,Dew PointF,Humidity,Sea Level PressureIn,VisibilityMPH,Wind Direction,Wind SpeedMPH,Gust SpeedMPH,PrecipitationIn,Events,Conditions,WindDirDegrees,DateUTC
12:36 AM,55.4,53.6,94,30.00,7.0,SSE,8.1,-,0.05,Rain,Light Rain,150,2013-04-28 04:36:00
12:48 AM,55.4,53.6,94,29.99,7.0,SSE,13.8,19.6,0.07,Rain,Light Rain,150,2013-04-28 04:48:00
12:53 AM,55.0,54.0,96,29.99,7.0,SSE,12.7,-,0.08,Rain,Light Rain,150,2013-04-28 04:53:00
1:01 AM,55.4,53.6,94,29.99,8.0,SSE,12.7,20.7,0.00,Rain,Light Rain,160,2013-04-28 05:01:00
1:21 AM,55.4,53.6,94,29.99,7.0,SSE,16.1,-,0.01,Rain,Light Rain,160,2013-04-28 05:21:00
1:50 AM,55.4,53.6,94,29.98,4.0,SSE,11.5,19.6,0.11,Rain,Heavy Rain,160,2013-04-28 05:50:00
1:53 AM,55.0,54.0,96,29.97,4.0,SSE,11.5,19.6,0.12,Rain,Rain,150,2013-04-28 05:53:00
2:34 AM,55.4,53.6,94,29.92,10.0,SW,12.7,20.7,0.07,,Overcast,230,2013-04-28 06:34:00
2:53 AM,55.0,54.0,96,29.90,10.0,SSE,18.4,24.2,0.07,,Mostly Cloudy,150,2013-04-28 06:53:00
3:00 AM,55.4,53.6,94,29.89,10.0,SE,17.3,25.3,N/A,,Mostly Cloudy,140,2013-04-28 07:00:00
3:32 AM,55.4,53.6,94,29.95,10.0,South,10.4,-,N/A,,Mostly Cloudy,180,2013-04-28 07:32:00
3:53 AM,55.9,54.0,93,29.94,10.0,South,9.2,-,N/A,,Overcast,170,2013-04-28 07:53:00
4:53 AM,54.0,53.1,97,29.92,10.0,SE,5.8,-,N/A,,Mostly Cloudy,140,2013-04-28 08:53:00
5:08 AM,53.6,53.6,100,29.92,10.0,SE,6.9,-,N/A,,Scattered Clouds,140,2013-04-28 09:08:00
5:53 AM,54.0,53.1,97,29.90,10.0,SE,5.8,-,N/A,,Scattered Clouds,130,2013-04-28 09:53:00
6:53 AM,52.0,52.0,100,29.91,8.0,Calm,Calm,-,N/A,,Mostly Cloudy,0,2013-04-28 10:53:00
7:53 AM,55.0,54.0,96,29.90,10.0,Calm,Calm,-,N/A,,Mostly Cloudy,0,2013-04-28 11:53:00
9:53 AM,60.1,55.9,86,29.90,10.0,South,11.5,-,N/A,,Mostly Cloudy,180,2013-04-28 13:53:00
10:53 AM,63.0,55.9,78,29.90,10.0,South,17.3,25.3,N/A,,Mostly Cloudy,180,2013-04-28 14:53:00
11:21 AM,62.6,55.4,77,29.91,10.0,South,13.8,26.5,N/A,,Overcast,190,2013-04-28 15:21:00
11:53 AM,63.0,55.9,78,29.91,10.0,SSW,11.5,-,N/A,,Overcast,200,2013-04-28 15:53:00
12:34 PM,66.2,57.2,73,29.90,10.0,South,13.8,19.6,N/A,,Mostly Cloudy,190,2013-04-28 16:34:00
12:53 PM,66.0,57.0,73,29.89,10.0,South,16.1,-,N/A,,Mostly Cloudy,190,2013-04-28 16:53:00
1:53 PM,66.0,57.0,73,29.86,10.0,SSW,11.5,-,N/A,,Overcast,200,2013-04-28 17:53:00
2:53 PM,68.0,59.0,73,29.86,10.0,South,13.8,24.2,N/A,,Overcast,180,2013-04-28 18:53:00
3:53 PM,68.0,59.0,73,29.84,10.0,SW,12.7,17.3,0.00,Rain,Light Rain,220,2013-04-28 19:53:00
4:19 PM,66.2,57.2,73,29.85,10.0,WSW,8.1,-,0.00,,Overcast,250,2013-04-28 20:19:00
4:53 PM,64.0,57.0,78,29.83,10.0,West,8.1,17.3,0.00,,Overcast,280,2013-04-28 20:53:00
5:17 PM,64.4,57.2,77,29.85,10.0,West,5.8,-,N/A,,Overcast,270,2013-04-28 21:17:00
5:53 PM,63.0,55.0,75,29.86,10.0,West,8.1,16.1,N/A,,Overcast,280,2013-04-28 21:53:00
6:53 PM,62.1,54.0,75,29.87,10.0,Variable,4.6,-,N/A,,Overcast,0,2013-04-28 22:53:00
7:53 PM,60.1,53.1,78,29.88,10.0,WSW,5.8,-,N/A,,Mostly Cloudy,240,2013-04-28 23:53:00
8:53 PM,55.0,51.1,86,29.89,10.0,WSW,5.8,-,N/A,,Partly Cloudy,240,2013-04-29 00:53:00
9:53 PM,55.9,52.0,87,29.91,10.0,West,5.8,-,N/A,,Clear,260,2013-04-29 01:53:00
10:53 PM,53.1,51.1,93,29.93,8.0,WSW,3.5,-,N/A,,Clear,250,2013-04-29 02:53:00
11:35 PM,53.6,51.8,94,29.93,8.0,Calm,Calm,-,N/A,,Mostly Cloudy,0,2013-04-29 03:35:00
11:53 PM,53.1,51.1,93,29.92,8.0,WSW,3.5,-,N/A,,Mostly Cloudy,250,2013-04-29 03:53:00